Location: Brede
(50.9167°N, 0.6000°E)
Time: 20:59:03
(UTC+00:00)

Altair - Pass Details

Date: 29 July 2021
Orbit: 1501 x 1682 km, 47.2° (Epoch: 22 September)

Event Time Altitude Azimuth Distance (km) Brightness Sun altitude
Exits shadow 03:12:43 10° 230° (SW) 3,686 8.8 -9.0°
Maximum altitude 03:21:37 55° 157° (SSE) 1,769 7.7 -8.0°
Drops below altitude 10° 03:30:26 10° 83° (E) 3,656 10.4 -7.0°
Sets 03:33:31 0° 79° (E) 4,640 11.2 -6.7°
